,,PA_Meas_PMT16A,,PR_Meas_QMR101_102,,RH_Meas_QMH101,,SR_Meas_QMS101,,TA_Meas_QMH101,,GenWind,,GenWind,
time,status,PA,status,PR,status,RH,status,SR,status,TA,status,DirAvg,status,SpdAvg,
2014-12-08, 00:00:04,VALID,917.941,VALID,0,VALID,95.8797,VALID,0,VALID,20.1513,VALID,352,VALID,0,
2014-12-08, 00:01:04,VALID,917.966,VALID,0,VALID,95.6129,VALID,0,VALID,20.1708,VALID,354,VALID,0,
2014-12-08, 00:02:04,VALID,917.931,VALID,0,VALID,95.4452,VALID,0,VALID,20.1903,VALID,354,VALID,0,
2014-12-08, 00:03:04,VALID,917.904,VALID,0,VALID,95.247,VALID,0,VALID,20.2098,VALID,354,VALID,0,
2014-12-08, 00:04:04,VALID,917.893,VALID,0,VALID,95.0792,VALID,0,VALID,20.2489,VALID,354,VALID,0,
2014-12-08, 00:05:04,VALID,917.884,VALID,0,VALID,94.6828,VALID,0,VALID,20.2278,VALID,354,VALID,0,
2014-12-08, 00:06:04,VALID,917.873,VALID,0,VALID,94.477,VALID,0,VALID,20.2293,VALID,354,VALID,0,
2014-12-08, 00:07:04,VALID,917.879,VALID,0,VALID,94.7972,VALID,0,VALID,20.2489,VALID,354,VALID,0,
2014-12-08, 00:08:04,VALID,917.856,VALID,0,VALID,95.0335,VALID,0,VALID,20.2684,VALID,354,VALID,0,
2014-12-08, 00:09:04,VALID,917.855,VALID,0,VALID,95.2775,VALID,0,VALID,20.2879,VALID,354,VALID,0,
2014-12-08, 00:10:04,VALID,917.84,VALID,0,VALID,95.5367,VALID,0,VALID,20.2879,VALID,354,VALID,0,
2014-12-08, 00:11:04,VALID,917.852,VALID,0,VALID,95.712,VALID,0,VALID,20.2879,VALID,344,VALID,0,
2014-12-08, 00:12:04,VALID,917.845,VALID,0,VALID,95.7958,VALID,0,VALID,20.2489,VALID,344,VALID,0,
2014-12-08, 00:13:04,VALID,917.846,VALID,0,VALID,96.0093,VALID,0,VALID,20.2489,VALID,344,VALID,0,
2014-12-08, 00:14:04,VALID,917.828,VALID,0,VALID,96.1846,VALID,0,VALID,20.2684,VALID,344,VALID,0,
2014-12-08, 00:15:04,VALID,917.823,VALID,0,VALID,96.2304,VALID,0,VALID,20.2489,VALID,344,VALID,0,
2014-12-08, 00:16:04,VALID,917.837,VALID,0,VALID,96.3524,VALID,0,VALID,20.2489,VALID,344,VALID,0,
2014-12-08, 00:17:04,VALID,917.795,VALID,0,VALID,96.4057,VALID,0,VALID,20.2684,VALID,344,VALID,0,
2014-12-08, 00:18:04,VALID,917.834,VALID,0,VALID,96.4667,VALID,0,VALID,20.2489,VALID,343,VALID,0,
2014-12-08, 00:19:04,VALID,917.827,VALID,0,VALID,96.5048,VALID,0,VALID,20.2293,VALID,343,VALID,0,
2014-12-08, 00:20:04,VALID,917.825,VALID,0,VALID,96.5582,VALID,0,VALID,20.2098,VALID,343,VALID,0,
2014-12-08, 00:21:04,VALID,917.848,VALID,0,VALID,96.5734,VALID,0,VALID,20.1693,VALID,343,VALID,0,
2014-12-08, 00:22:04,VALID,917.86,VALID,0,VALID,96.5734,VALID,0,VALID,20.1498,VALID,343,VALID,0,
2014-12-08, 00:23:04,VALID,917.845,VALID,0,VALID,96.5658,VALID,0,VALID,20.1708,VALID,343,VALID,0,
2014-12-08, 00:24:04,VALID,917.883,VALID,0,VALID,96.6039,VALID,0,VALID,20.1498,VALID,343,VALID,0,
2014-12-08, 00:25:04,VALID,917.883,VALID,0,VALID,96.642,VALID,0,VALID,20.1708,VALID,343,VALID,0,
2014-12-08, 00:26:04,VALID,917.86,VALID,0,VALID,96.6649,VALID,0,VALID,20.1513,VALID,343,VALID,0,
2014-12-08, 00:27:04,VALID,917.871,VALID,0,VALID,96.6954,VALID,0,VALID,20.1318,VALID,343,VALID,0,
2014-12-08, 00:28:04,VALID,917.881,VALID,0,VALID,96.703,VALID,0,VALID,20.1123,VALID,343,VALID,0,
2014-12-08, 00:29:04,VALID,917.906,VALID,0,VALID,96.7259,VALID,0,VALID,20.0733,VALID,343,VALID,0,
2014-12-08, 00:30:04,VALID,917.929,VALID,0,VALID,96.7335,VALID,0,VALID,20.0538,VALID,343,VALID,0,
2014-12-08, 00:31:04,VALID,917.917,VALID,0,VALID,96.7183,VALID,0.107441,VALID,19.9953,VALID,343,VALID,0,
2014-12-08, 00:32:04,VALID,917.93,VALID,0,VALID,96.7335,VALID,0,VALID,19.9563,VALID,343,VALID,0,
2014-12-08, 00:33:04,VALID,917.919,VALID,0,VALID,96.7488,VALID,0,VALID,19.9563,VALID,343,VALID,0,
2014-12-08, 00:34:04,VALID,917.913,VALID,0,VALID,96.825,VALID,0,VALID,19.9563,VALID,343,VALID,0,
2014-12-08, 00:35:04,VALID,917.917,VALID,0,VALID,96.7488,VALID,0,VALID,19.8978,VALID,343,VALID,0,
2014-12-08, 00:36:04,VALID,917.908,VALID,0,VALID,96.7945,VALID,0,VALID,19.8963,VALID,343,VALID,0,
2014-12-08, 00:37:04,VALID,917.879,VALID,0,VALID,96.8784,VALID,0,VALID,19.9368,VALID,343,VALID,0,
2014-12-08, 00:38:04,VALID,917.856,VALID,0,VALID,96.9089,VALID,0,VALID,19.9173,VALID,343,VALID,0,
2014-12-08, 00:39:04,VALID,917.885,VALID,0,VALID,96.9546,VALID,0,VALID,19.9368,VALID,343,VALID,0,
2014-12-08, 00:40:04,VALID,917.87,VALID,0,VALID,97.0385,VALID,0,VALID,19.9563,VALID,334,VALID,0,
2014-12-08, 00:41:04,VALID,917.885,VALID,0,VALID,97.0766,VALID,0,VALID,19.9563,VALID,334,VALID,0,
2014-12-08, 00:42:04,VALID,917.885,VALID,0,VALID,97.1223,VALID,0,VALID,19.9563,VALID,334,VALID,0,
2014-12-08, 00:43:04,VALID,917.884,VALID,0,VALID,97.1604,VALID,0,VALID,19.9368,VALID,334,VALID,0,
2014-12-08, 00:44:04,VALID,917.904,VALID,0,VALID,97.1986,VALID,0,VALID,19.9563,VALID,334,VALID,0,
2014-12-08, 00:45:04,VALID,917.909,VALID,0,VALID,97.2443,VALID,0,VALID,19.9368,VALID,334,VALID,0,
2014-12-08, 00:46:04,VALID,917.952,VALID,0,VALID,97.2595,VALID,0,VALID,19.9173,VALID,334,VALID,0,
2014-12-08, 00:47:04,VALID,917.943,VALID,0,VALID,97.29,VALID,0,VALID,19.9173,VALID,334,VALID,0,
2014-12-08, 00:48:04,VALID,917.945,VALID,0,VALID,97.3205,VALID,0,VALID,19.8783,VALID,334,VALID,0,
2014-12-08, 00:49:04,VALID,917.983,VALID,0,VALID,97.3434,VALID,0,VALID,19.8588,VALID,334,VALID,0,
2014-12-08, 00:50:04,VALID,917.946,VALID,0,VALID,97.3739,VALID,0,VALID,19.8783,VALID,334,VALID,0,
2014-12-08, 00:51:04,VALID,917.964,VALID,0,VALID,97.3891,VALID,0,VALID,19.8588,VALID,334,VALID,0,
2014-12-08, 00:52:04,VALID,917.984,VALID,0,VALID,97.412,VALID,0,VALID,19.8393,VALID,334,VALID,0,
2014-12-08, 00:53:04,VALID,917.949,VALID,0,VALID,97.412,VALID,0,VALID,19.8003,VALID,334,VALID,0,
2014-12-08, 00:54:04,VALID,917.942,VALID,0,VALID,97.4654,VALID,0,VALID,19.8003,VALID,334,VALID,0,
2014-12-08, 00:55:04,VALID,917.942,VALID,0,VALID,97.4425,VALID,0,VALID,19.8003,VALID,334,VALID,0,
2014-12-08, 00:56:04,VALID,917.963,VALID,0,VALID,97.473,VALID,0,VALID,19.8003,VALID,334,VALID,0,
2014-12-08, 00:57:04,VALID,917.978,VALID,0,VALID,97.473,VALID,0,VALID,19.8003,VALID,334,VALID,0,
2014-12-08, 00:58:04,VALID,917.934,VALID,0,VALID,97.4806,VALID,0,VALID,19.8003,VALID,334,VALID,0,
2014-12-08, 00:59:04,VALID,917.952,VALID,0,VALID,97.4882,VALID,0,VALID,19.8003,VALID,334,VALID,0,
2014-12-08, 01:00:04,VALID,917.97,VALID,0,VALID,97.4654,VALID,0,VALID,19.8003,VALID,334,VALID,0,
2014-12-08, 01:01:04,VALID,917.998,VALID,0,VALID,97.4577,VALID,0,VALID,19.8198,VALID,334,VALID,0,
2014-12-08, 01:02:04,VALID,917.997,VALID,0,VALID,97.4425,VALID,0,VALID,19.8393,VALID,334,VALID,0,
2014-12-08, 01:03:04,VALID,918.027,VALID,0,VALID,97.4425,VALID,0,VALID,19.8393,VALID,334,VALID,0,
2014-12-08, 01:04:04,VALID,918.039,VALID,0,VALID,97.4273,VALID,0,VALID,19.8588,VALID,334,VALID,0,
2014-12-08, 01:05:04,VALID,918.023,VALID,0,VALID,97.412,VALID,0,VALID,19.8393,VALID,334,VALID,0,
2014-12-08, 01:06:04,VALID,918.018,VALID,0,VALID,97.3739,VALID,0,VALID,19.8198,VALID,334,VALID,0,
2014-12-08, 01:07:04,VALID,918.018,VALID,0,VALID,97.351,VALID,0,VALID,19.8003,VALID,334,VALID,0,
2014-12-08, 01:08:04,VALID,918.031,VALID,0,VALID,97.3053,VALID,0,VALID,19.8213,VALID,334,VALID,0,
2014-12-08, 01:09:04,VALID,918.007,VALID,0,VALID,97.2977,VALID,0,VALID,19.7808,VALID,334,VALID,0,
2014-12-08, 01:10:04,VALID,917.984,VALID,0,VALID,97.3358,VALID,0,VALID,19.8198,VALID,334,VALID,0,
2014-12-08, 01:11:04,VALID,917.989,VALID,0,VALID,97.2977,VALID,0,VALID,19.7808,VALID,334,VALID,0,
2014-12-08, 01:12:04,VALID,917.959,VALID,0,VALID,97.2519,VALID,0,VALID,19.7613,VALID,334,VALID,0,
2014-12-08, 01:13:04,VALID,917.969,VALID,0,VALID,97.2443,VALID,0,VALID,19.8003,VALID,335,VALID,0,
2014-12-08, 01:14:04,VALID,917.962,VALID,0,VALID,97.2672,VALID,0,VALID,19.8003,VALID,335,VALID,0,
2014-12-08, 01:15:04,VALID,917.966,VALID,0,VALID,97.2443,VALID,0,VALID,19.7808,VALID,335,VALID,0,
2014-12-08, 01:16:04,VALID,917.948,VALID,0,VALID,97.2138,VALID,0,VALID,19.7613,VALID,335,VALID,0,
2014-12-08, 01:17:04,VALID,917.899,VALID,0,VALID,97.1909,VALID,0,VALID,19.7613,VALID,335,VALID,0,
2014-12-08, 01:18:04,VALID,917.896,VALID,0,VALID,97.1909,VALID,0,VALID,19.7808,VALID,335,VALID,0,
2014-12-08, 01:19:04,VALID,917.889,VALID,0,VALID,97.2062,VALID,0,VALID,19.7808,VALID,334,VALID,0,
2014-12-08, 01:20:04,VALID,917.845,VALID,0,VALID,97.1757,VALID,0,VALID,19.7613,VALID,334,VALID,0,
2014-12-08, 01:21:04,VALID,917.814,VALID,0,VALID,97.1757,VALID,0,VALID,19.7808,VALID,334,VALID,0,
2014-12-08, 01:22:04,VALID,917.796,VALID,0,VALID,97.1681,VALID,0,VALID,19.7808,VALID,334,VALID,0,
2014-12-08, 01:23:04,VALID,917.77,VALID,0,VALID,97.1147,VALID,0,VALID,19.7613,VALID,335,VALID,0,
2014-12-08, 01:24:04,VALID,917.769,VALID,0,VALID,97.1071,VALID,0,VALID,19.7223,VALID,334,VALID,0,
2014-12-08, 01:25:04,VALID,917.728,VALID,0,VALID,96.9622,VALID,0,VALID,19.6248,VALID,334,VALID,0,
2014-12-08, 01:26:04,VALID,917.731,VALID,0,VALID,96.886,VALID,0,VALID,19.5858,VALID,335,VALID,0,
2014-12-08, 01:27:04,VALID,917.707,VALID,0,VALID,96.8555,VALID,0,VALID,19.5858,VALID,334,VALID,0,
2014-12-08, 01:28:04,VALID,917.706,VALID,0,VALID,96.8631,VALID,0,VALID,19.5663,VALID,334,VALID,0,
2014-12-08, 01:29:04,VALID,917.683,VALID,0,VALID,96.8479,VALID,0,VALID,19.5468,VALID,334,VALID,0,
2014-12-08, 01:30:04,VALID,917.68,VALID,0,VALID,96.7793,VALID,0,VALID,19.5093,VALID,335,VALID,0,
2014-12-08, 01:31:04,VALID,917.652,VALID,0,VALID,96.7869,VALID,0,VALID,19.4688,VALID,335,VALID,0,
2014-12-08, 01:32:04,VALID,917.667,VALID,0,VALID,96.8403,VALID,0,VALID,19.4883,VALID,344,VALID,0,
2014-12-08, 01:33:04,VALID,917.64,VALID,0,VALID,96.9241,VALID,0,VALID,19.4883,VALID,344,VALID,0,
2014-12-08, 01:34:04,VALID,917.629,VALID,0,VALID,96.9622,VALID,0,VALID,19.4883,VALID,344,VALID,0,
2014-12-08, 01:35:04,VALID,917.618,VALID,0,VALID,96.9394,VALID,0,VALID,19.4883,VALID,353,VALID,0,
2014-12-08, 01:36:04,VALID,917.59,VALID,0,VALID,96.8936,VALID,0,VALID,19.4298,VALID,355,VALID,0,
2014-12-08, 01:37:04,VALID,917.567,VALID,0,VALID,96.8555,VALID,0,VALID,19.4298,VALID,355,VALID,0,
2014-12-08, 01:38:04,VALID,917.562,VALID,0,VALID,96.8707,VALID,0,VALID,19.4298,VALID,355,VALID,0,
2014-12-08, 01:39:04,VALID,917.537,VALID,0,VALID,96.8784,VALID,0,VALID,19.4313,VALID,355,VALID,0,
2014-12-08, 01:40:04,VALID,917.522,VALID,0,VALID,96.8631,VALID,0,VALID,19.4103,VALID,355,VALID,0,
2014-12-08, 01:41:04,VALID,917.516,VALID,0,VALID,96.8403,VALID,0,VALID,19.4298,VALID,355,VALID,0,
2014-12-08, 01:42:04,VALID,917.509,VALID,0,VALID,96.7793,VALID,0,VALID,19.4298,VALID,355,VALID,0,
2014-12-08, 01:43:04,VALID,917.458,VALID,0,VALID,96.764,VALID,0,VALID,19.4493,VALID,355,VALID,0,
2014-12-08, 01:44:04,VALID,917.428,VALID,0,VALID,96.6954,VALID,0,VALID,19.4493,VALID,355,VALID,0,
2014-12-08, 01:45:04,VALID,917.432,VALID,0,VALID,96.6344,VALID,0,VALID,19.4478,VALID,355,VALID,0,
2014-12-08, 01:46:04,VALID,917.442,VALID,0,VALID,96.5734,VALID,0,VALID,19.4883,VALID,355,VALID,0,
2014-12-08, 01:47:04,VALID,917.387,VALID,0,VALID,96.4972,VALID,0,VALID,19.5078,VALID,355,VALID,0,
2014-12-08, 01:48:04,VALID,917.38,VALID,0,VALID,96.4743,VALID,0,VALID,19.5078,VALID,355,VALID,0,
2014-12-08, 01:49:04,VALID,917.381,VALID,0,VALID,96.3524,VALID,0,VALID,19.5078,VALID,355,VALID,0,
2014-12-08, 01:50:04,VALID,917.38,VALID,0,VALID,96.2456,VALID,0,VALID,19.5078,VALID,355,VALID,0,
2014-12-08, 01:51:04,VALID,917.35,VALID,0,VALID,96.1923,VALID,0,VALID,19.5078,VALID,355,VALID,0,
2014-12-08, 01:52:04,VALID,917.352,VALID,0,VALID,96.1236,VALID,0,VALID,19.5273,VALID,355,VALID,0,
2014-12-08, 01:53:04,VALID,917.343,VALID,0,VALID,96.0627,VALID,0,VALID,19.5468,VALID,355,VALID,0,
2014-12-08, 01:54:04,VALID,917.32,VALID,0,VALID,95.9636,VALID,0,VALID,19.5663,VALID,355,VALID,0,
2014-12-08, 01:55:04,VALID,917.273,VALID,0,VALID,95.8263,VALID,0,VALID,19.5858,VALID,355,VALID,0,
2014-12-08, 01:56:04,VALID,917.274,VALID,0,VALID,95.6739,VALID,0,VALID,19.5663,VALID,355,VALID,0,
2014-12-08, 01:57:04,VALID,917.249,VALID,0,VALID,95.4909,VALID,0,VALID,19.5663,VALID,355,VALID,0,
2014-12-08, 01:58:04,VALID,917.229,VALID,0,VALID,95.3156,VALID,0,VALID,19.5678,VALID,355,VALID,0,
2014-12-08, 01:59:04,VALID,917.213,VALID,0,VALID,95.1174,VALID,0,VALID,19.5483,VALID,355,VALID,0,
2014-12-08, 02:00:04,VALID,917.212,VALID,0,VALID,94.5685,VALID,0,VALID,19.5483,VALID,355,VALID,0,
2014-12-08, 02:01:04,VALID,917.211,VALID,0,VALID,93.8747,VALID,0,VALID,19.5663,VALID,355,VALID,0,
2014-12-08, 02:02:04,VALID,917.173,VALID,0,VALID,93.2344,VALID,0,VALID,19.5663,VALID,355,VALID,0,
2014-12-08, 02:03:04,VALID,917.176,VALID,0,VALID,92.838,VALID,0,VALID,19.5663,VALID,355,VALID,0,
2014-12-08, 02:04:04,VALID,917.206,VALID,0,VALID,92.5711,VALID,0,VALID,19.5663,VALID,355,VALID,0,
2014-12-08, 02:05:04,VALID,917.174,VALID,0,VALID,92.4415,VALID,0,VALID,19.5663,VALID,355,VALID,0,
2014-12-08, 02:06:04,VALID,917.195,VALID,0,VALID,92.4492,VALID,0,VALID,19.5858,VALID,355,VALID,0,
2014-12-08, 02:07:04,VALID,917.175,VALID,0,VALID,92.7846,VALID,0,VALID,19.5663,VALID,355,VALID,0,
2014-12-08, 02:08:04,VALID,917.169,VALID,0,VALID,93.3106,VALID,0,VALID,19.5468,VALID,355,VALID,0,
2014-12-08, 02:09:04,VALID,917.131,VALID,0,VALID,94.2864,VALID,0,VALID,19.5468,VALID,355,VALID,0,
2014-12-08, 02:10:04,VALID,917.155,VALID,0,VALID,95.064,VALID,0,VALID,19.5273,VALID,356,VALID,0,
2014-12-08, 02:11:04,VALID,917.141,VALID,0,VALID,95.4223,VALID,0,VALID,19.5078,VALID,356,VALID,0,
2014-12-08, 02:12:04,VALID,917.147,VALID,0,VALID,95.6815,VALID,0,VALID,19.4688,VALID,57,VALID,0,
2014-12-08, 02:13:04,VALID,917.156,VALID,0,VALID,95.9254,VALID,0,VALID,19.4688,VALID,57,VALID,0,
2014-12-08, 02:14:04,VALID,917.131,VALID,0,VALID,96.1313,VALID,0,VALID,19.4688,VALID,57,VALID,0,
2014-12-08, 02:15:04,VALID,917.126,VALID,0,VALID,96.238,VALID,0,VALID,19.4703,VALID,57,VALID,0,
2014-12-08, 02:16:04,VALID,917.087,VALID,0,VALID,96.3371,VALID,0,VALID,19.4688,VALID,57,VALID,0,
2014-12-08, 02:17:04,VALID,917.096,VALID,0,VALID,96.3981,VALID,0,VALID,19.4493,VALID,57,VALID,0,
2014-12-08, 02:18:04,VALID,917.118,VALID,0,VALID,96.4515,VALID,0,VALID,19.4493,VALID,57,VALID,0,
2014-12-08, 02:19:04,VALID,917.076,VALID,0,VALID,96.4972,VALID,0,VALID,19.4493,VALID,57,VALID,0,
2014-12-08, 02:20:05,VALID,917.073,VALID,0,VALID,96.5582,VALID,0,VALID,19.4493,VALID,57,VALID,0,
2014-12-08, 02:21:05,VALID,917.1,VALID,0,VALID,96.5658,VALID,0,VALID,19.4508,VALID,57,VALID,0,
2014-12-08, 02:22:05,VALID,917.077,VALID,0,VALID,96.5429,VALID,0,VALID,19.4313,VALID,57,VALID,0,
2014-12-08, 02:23:05,VALID,917.086,VALID,0,VALID,96.5734,VALID,0,VALID,19.4103,VALID,57,VALID,0,
2014-12-08, 02:24:05,VALID,917.062,VALID,0,VALID,96.5963,VALID,0,VALID,19.4118,VALID,57,VALID,0,
2014-12-08, 02:25:05,VALID,917.046,VALID,0,VALID,96.6192,VALID,0,VALID,19.4103,VALID,57,VALID,0,
2014-12-08, 02:26:05,VALID,917.044,VALID,0,VALID,96.6802,VALID,0,VALID,19.4118,VALID,57,VALID,0,
2014-12-08, 02:27:05,VALID,917.012,VALID,0,VALID,96.7107,VALID,0,VALID,19.4118,VALID,57,VALID,0,
2014-12-08, 02:28:05,VALID,917.057,VALID,0,VALID,96.7335,VALID,0,VALID,19.3908,VALID,57,VALID,0,
2014-12-08, 02:29:05,VALID,917.053,VALID,0,VALID,96.7411,VALID,0,VALID,19.3908,VALID,57,VALID,0,
2014-12-08, 02:30:05,VALID,917.024,VALID,0,VALID,96.7793,VALID,0,VALID,19.3713,VALID,57,VALID,0,
2014-12-08, 02:31:05,VALID,917.04,VALID,0,VALID,96.7945,VALID,0,VALID,19.3713,VALID,57,VALID,0,
2014-12-08, 02:32:05,VALID,917.039,VALID,0,VALID,96.8631,VALID,0,VALID,19.4313,VALID,57,VALID,0,
2014-12-08, 02:33:05,VALID,917.076,VALID,0,VALID,96.8784,VALID,0,VALID,19.4298,VALID,57,VALID,0,
2014-12-08, 02:34:05,VALID,917.056,VALID,0,VALID,96.9165,VALID,0,VALID,19.4298,VALID,57,VALID,0,
2014-12-08, 02:35:05,VALID,917.067,VALID,0,VALID,96.9089,VALID,0,VALID,19.4898,VALID,57,VALID,0,
2014-12-08, 02:36:05,VALID,917.089,VALID,0,VALID,96.8936,VALID,0,VALID,19.4688,VALID,57,VALID,0,
2014-12-08, 02:37:05,VALID,917.088,VALID,0,VALID,96.8936,VALID,0,VALID,19.5093,VALID,57,VALID,0,
2014-12-08, 02:38:05,VALID,917.076,VALID,0,VALID,96.8555,VALID,0,VALID,19.5078,VALID,57,VALID,0,
2014-12-08, 02:39:05,VALID,917.056,VALID,0,VALID,96.8174,VALID,0,VALID,19.5078,VALID,57,VALID,0,
2014-12-08, 02:40:05,VALID,917.055,VALID,0,VALID,96.7869,VALID,0,VALID,19.5498,VALID,57,VALID,0,
2014-12-08, 02:41:05,VALID,917.057,VALID,0,VALID,96.7107,VALID,0,VALID,19.5678,VALID,57,VALID,0,
2014-12-08, 02:42:05,VALID,917.049,VALID,0,VALID,96.6573,VALID,0,VALID,19.5483,VALID,57,VALID,0,
2014-12-08, 02:43:05,VALID,917.059,VALID,0,VALID,96.5124,VALID,0.107441,VALID,19.5468,VALID,57,VALID,0,
2014-12-08, 02:44:05,VALID,917.031,VALID,0,VALID,96.3524,VALID,0.107441,VALID,19.4868,VALID,57,VALID,0,
2014-12-08, 02:45:05,VALID,917.024,VALID,0,VALID,96.1694,VALID,0,VALID,19.4283,VALID,57,VALID,0,
2014-12-08, 02:46:05,VALID,917.035,VALID,0,VALID,96.1084,VALID,0.107441,VALID,19.4088,VALID,57,VALID,0,
2014-12-08, 02:47:05,VALID,917.016,VALID,0,VALID,96.1465,VALID,0,VALID,19.4103,VALID,57,VALID,0,
2014-12-08, 02:48:05,VALID,917.032,VALID,0,VALID,96.1541,VALID,0.107441,VALID,19.4103,VALID,57,VALID,0,
2014-12-08, 02:49:05,VALID,917.05,VALID,0,VALID,96.1541,VALID,0.107441,VALID,19.4103,VALID,57,VALID,0,
2014-12-08, 02:50:05,VALID,917.01,VALID,0,VALID,96.1313,VALID,0,VALID,19.4088,VALID,57,VALID,0,
2014-12-08, 02:51:05,VALID,917.021,VALID,0,VALID,96.116,VALID,0,VALID,19.4298,VALID,57,VALID,0,
2014-12-08, 02:52:05,VALID,917.032,VALID,0,VALID,96.1236,VALID,0.107441,VALID,19.4688,VALID,57,VALID,0,
2014-12-08, 02:53:05,VALID,916.993,VALID,0,VALID,96.1008,VALID,0.107441,VALID,19.4673,VALID,57,VALID,0,
2014-12-08, 02:54:05,VALID,917.013,VALID,0,VALID,96.0169,VALID,0.107441,VALID,19.4478,VALID,57,VALID,0,
2014-12-08, 02:55:05,VALID,917.019,VALID,0,VALID,95.9102,VALID,0,VALID,19.4298,VALID,57,VALID,0,
2014-12-08, 02:56:05,VALID,916.993,VALID,0,VALID,95.7882,VALID,0,VALID,19.3698,VALID,57,VALID,0,
2014-12-08, 02:57:05,VALID,916.987,VALID,0,VALID,95.5824,VALID,0.107441,VALID,19.3323,VALID,57,VALID,0,
2014-12-08, 02:58:05,VALID,916.954,VALID,0,VALID,95.4223,VALID,0,VALID,19.2558,VALID,57,VALID,0,
2014-12-08, 02:59:05,VALID,916.965,VALID,0,VALID,95.4604,VALID,0,VALID,19.1568,VALID,57,VALID,0,
2014-12-08, 03:00:05,VALID,916.963,VALID,0,VALID,95.6815,VALID,0,VALID,19.1583,VALID,57,VALID,0,
2014-12-08, 03:01:05,VALID,916.939,VALID,0,VALID,95.8263,VALID,0,VALID,19.0998,VALID,57,VALID,0,
2014-12-08, 03:02:05,VALID,916.928,VALID,0,VALID,95.8111,VALID,0,VALID,19.0008,VALID,57,VALID,0,
2014-12-08, 03:03:05,VALID,916.905,VALID,0,VALID,95.895,VALID,0,VALID,18.9633,VALID,57,VALID,0,
2014-12-08, 03:04:05,VALID,916.895,VALID,0,VALID,96.0627,VALID,0,VALID,18.9243,VALID,56,VALID,0,
2014-12-08, 03:05:05,VALID,916.877,VALID,0,VALID,96.2533,VALID,0,VALID,18.9048,VALID,54,VALID,0,
2014-12-08, 03:06:05,VALID,916.861,VALID,0,VALID,96.4133,VALID,0,VALID,18.8853,VALID,47,VALID,0,
2014-12-08, 03:07:05,VALID,916.863,VALID,0,VALID,96.4896,VALID,0,VALID,18.8254,VALID,39,VALID,0,
2014-12-08, 03:08:05,VALID,916.871,VALID,0,VALID,96.5963,VALID,0,VALID,18.8268,VALID,36,VALID,0,
2014-12-08, 03:09:05,VALID,916.851,VALID,0,VALID,96.7564,VALID,0,VALID,18.8059,VALID,36,VALID,0,
2014-12-08, 03:10:05,VALID,916.834,VALID,0,VALID,96.8936,VALID,0,VALID,18.8449,VALID,36,VALID,0,
2014-12-08, 03:11:05,VALID,916.838,VALID,0,VALID,96.9775,VALID,0,VALID,18.8658,VALID,36,VALID,0,
2014-12-08, 03:12:05,VALID,916.8,VALID,0,VALID,97.0385,VALID,0,VALID,18.8658,VALID,36,VALID,0,
2014-12-08, 03:13:05,VALID,916.805,VALID,0,VALID,97.0918,VALID,0,VALID,18.8449,VALID,36,VALID,0,
2014-12-08, 03:14:05,VALID,916.794,VALID,0,VALID,97.1604,VALID,0,VALID,18.8254,VALID,38,VALID,0,
2014-12-08, 03:15:05,VALID,916.781,VALID,0,VALID,97.1833,VALID,0,VALID,18.8268,VALID,42,VALID,0,
2014-12-08, 03:16:05,VALID,916.791,VALID,0,VALID,97.2214,VALID,0,VALID,18.7864,VALID,48,VALID,0,
2014-12-08, 03:17:05,VALID,916.805,VALID,0,VALID,97.2443,VALID,0,VALID,18.7864,VALID,57,VALID,0,
2014-12-08, 03:18:05,VALID,916.796,VALID,0,VALID,97.29,VALID,0,VALID,18.8073,VALID,57,VALID,0,
2014-12-08, 03:19:05,VALID,916.805,VALID,0,VALID,97.351,VALID,0,VALID,18.8463,VALID,57,VALID,0,
2014-12-08, 03:20:05,VALID,916.824,VALID,0,VALID,97.4349,VALID,0,VALID,18.8658,VALID,58,VALID,0,
2014-12-08, 03:21:05,VALID,916.843,VALID,0,VALID,97.4577,VALID,0,VALID,18.9424,VALID,57,VALID,0,
2014-12-08, 03:22:05,VALID,916.827,VALID,0,VALID,97.5187,VALID,0,VALID,19.0023,VALID,57,VALID,0,
2014-12-08, 03:23:05,VALID,916.819,VALID,0,VALID,97.5569,VALID,0,VALID,18.9814,VALID,57,VALID,0,
2014-12-08, 03:24:05,VALID,916.816,VALID,0,VALID,97.5569,VALID,0,VALID,18.9034,VALID,57,VALID,0,
2014-12-08, 03:25:05,VALID,916.793,VALID,0,VALID,97.5416,VALID,0,VALID,18.9048,VALID,52,VALID,0,
2014-12-08, 03:26:05,VALID,916.781,VALID,0,VALID,97.5645,VALID,0,VALID,18.9633,VALID,42,VALID,0,
2014-12-08, 03:27:05,VALID,916.798,VALID,0,VALID,97.6026,VALID,0,VALID,18.9828,VALID,37,VALID,0,
2014-12-08, 03:28:05,VALID,916.762,VALID,0,VALID,97.6102,VALID,0,VALID,18.9828,VALID,37,VALID,0,
2014-12-08, 03:29:05,VALID,916.76,VALID,0,VALID,97.6255,VALID,0,VALID,18.9828,VALID,26,VALID,0,
2014-12-08, 03:30:05,VALID,916.752,VALID,0,VALID,97.6178,VALID,0,VALID,19.0023,VALID,26,VALID,0,
2014-12-08, 03:31:05,VALID,916.74,VALID,0,VALID,97.6331,VALID,0,VALID,19.0023,VALID,26,VALID,0,
2014-12-08, 03:32:05,VALID,916.699,VALID,0,VALID,97.6102,VALID,0,VALID,18.9828,VALID,26,VALID,0,
2014-12-08, 03:33:05,VALID,916.697,VALID,0,VALID,97.6178,VALID,0,VALID,18.9828,VALID,26,VALID,0,
2014-12-08, 03:34:05,VALID,916.686,VALID,0,VALID,97.6178,VALID,0,VALID,18.9633,VALID,36,VALID,0,
2014-12-08, 03:35:05,VALID,916.693,VALID,0,VALID,97.6102,VALID,0,VALID,18.9243,VALID,38,VALID,0,
2014-12-08, 03:36:05,VALID,916.694,VALID,0,VALID,97.595,VALID,0,VALID,18.9243,VALID,29,VALID,0,
2014-12-08, 03:37:05,VALID,916.711,VALID,0,VALID,97.5721,VALID,0,VALID,18.8644,VALID,23,VALID,0,
2014-12-08, 03:38:05,VALID,916.746,VALID,0,VALID,97.5721,VALID,0,VALID,18.8658,VALID,23,VALID,0,
2014-12-08, 03:39:05,VALID,916.75,VALID,0,VALID,97.5492,VALID,0,VALID,18.8658,VALID,23,VALID,0,
2014-12-08, 03:40:05,VALID,916.777,VALID,0,VALID,97.5416,VALID,0,VALID,18.8853,VALID,23,VALID,0,
2014-12-08, 03:41:05,VALID,916.789,VALID,0,VALID,97.534,VALID,0,VALID,18.8658,VALID,23,VALID,0,
2014-12-08, 03:42:05,VALID,916.808,VALID,0,VALID,97.5264,VALID,0,VALID,18.8658,VALID,23,VALID,0,
2014-12-08, 03:43:05,VALID,916.81,VALID,0,VALID,97.473,VALID,0,VALID,18.8853,VALID,23,VALID,0,
2014-12-08, 03:44:05,VALID,916.845,VALID,0,VALID,97.4349,VALID,0,VALID,18.9048,VALID,23,VALID,0,
2014-12-08, 03:45:05,VALID,916.847,VALID,0,VALID,97.3891,VALID,0,VALID,18.9438,VALID,23,VALID,0,
2014-12-08, 03:46:05,VALID,916.841,VALID,0,VALID,97.3434,VALID,0,VALID,18.9633,VALID,23,VALID,0,
2014-12-08, 03:47:05,VALID,916.85,VALID,0,VALID,97.2672,VALID,0,VALID,18.9828,VALID,23,VALID,0,
2014-12-08, 03:48:05,VALID,916.818,VALID,0,VALID,97.1833,VALID,0,VALID,18.9619,VALID,23,VALID,0,
2014-12-08, 03:49:05,VALID,916.817,VALID,0,VALID,97.0918,VALID,0,VALID,18.9619,VALID,23,VALID,0,
2014-12-08, 03:50:05,VALID,916.832,VALID,0,VALID,97.1147,VALID,0,VALID,19.0203,VALID,23,VALID,0,
2014-12-08, 03:51:05,VALID,916.846,VALID,0,VALID,97.1299,VALID,0,VALID,19.0608,VALID,23,VALID,0,
2014-12-08, 03:52:05,VALID,916.864,VALID,0,VALID,97.1376,VALID,0,VALID,19.0803,VALID,23,VALID,0,
2014-12-08, 03:53:05,VALID,916.864,VALID,0,VALID,97.1376,VALID,0,VALID,19.0998,VALID,23,VALID,0,
2014-12-08, 03:54:05,VALID,916.877,VALID,0,VALID,97.1681,VALID,0,VALID,19.0998,VALID,23,VALID,0,
2014-12-08, 03:55:05,VALID,916.94,VALID,0,VALID,97.2062,VALID,0,VALID,19.0803,VALID,23,VALID,0,
2014-12-08, 03:56:05,VALID,916.957,VALID,0,VALID,97.2519,VALID,0,VALID,19.0803,VALID,23,VALID,0,
2014-12-08, 03:57:05,VALID,916.957,VALID,0,VALID,97.2595,VALID,0,VALID,19.0803,VALID,23,VALID,0,
2014-12-08, 03:58:05,VALID,916.951,VALID,0,VALID,97.2977,VALID,0,VALID,19.0803,VALID,23,VALID,0,
2014-12-08, 03:59:05,VALID,916.952,VALID,0,VALID,97.3129,VALID,0,VALID,19.0788,VALID,23,VALID,0,
2014-12-08, 04:00:05,VALID,916.961,VALID,0,VALID,97.3358,VALID,0,VALID,19.0998,VALID,23,VALID,0,